Weather History for Olathe New Century, KS

Change the Weather History Date:

Friday, July 19, 2013

  Actual Average Record
Temperature  
Mean Temperature 86 °F -  
Max Temperature 99 °F 87 °F 102 °F (2012)
Min Temperature 73 °F 66 °F 57 °F (2014)
Cooling Degree Days 20    
Growing Degree Days 36 (Base 50)    
Moisture  
Dew Point 63 °F    
Average Humidity 49    
Maximum Humidity 73    
Minimum Humidity 29    
Precipitation  
Precipitation 0.00 in - - ()
Sea Level Pressure  
Sea Level Pressure 29.93 in    
Wind  
Wind Speed 8 mph (SW)    
Max Wind Speed 16 mph    
Max Gust Speed 22 mph    
Visibility 10 miles    
Events      
Averages and records for this station are not official NWS values.
T = Trace of Precipitation, MM = Missing Value Source: NWS Daily Summary

Daily Weather History Graph

Daily Weather History Graph

Search for Another Location

Airport:

Trip Planner

Search our weather history database for the weather conditions in past years. The results will help you decide how hot, cold, wet, or windy it might be!

Date:

Astronomy

Jul. 19, 2013 Rise Set
Actual Time 6:09 AM CDT 8:41 PM CDT
Civil Twilight 5:39 AM CDT 9:12 PM CDT
Nautical Twilight 5:01 AM CDT 9:50 PM CDT
Astronomical Twilight 4:18 AM CDT 10:32 PM CDT
Moon 5:44 PM CDT (7/19) 2:51 AM CDT (7/19)
Length of Visible Light 15h 32m
Length of Day
14h 31m
Waxing Gibbous, 87% of the Moon is Illuminated
Jul 19
Waxing Gibbous
Jul 22
Full
Jul 29
Last Quarter
Aug 6
New
Aug 14
First Quarter

Hourly Weather History & Observations

Time (CDT) Temp. Heat Index Dew Point Humidity Pressure Visibility Wind Dir Wind Speed Gust Speed Precip Events Conditions
12:53 AM 79.0 °F - 64.9 °F 62% 29.99 in 10.0 mi SSW 6.9 mph - N/A   Clear
1:53 AM 78.1 °F - 64.0 °F 62% 29.99 in 10.0 mi SW 6.9 mph - N/A   Clear
2:53 AM 75.9 °F - 64.0 °F 67% 29.98 in 10.0 mi SSW 5.8 mph - N/A   Clear
3:53 AM 75.0 °F - 64.0 °F 69% 29.97 in 10.0 mi SW 6.9 mph - N/A   Clear
4:53 AM 73.9 °F - 64.0 °F 71% 29.96 in 10.0 mi SSW 5.8 mph - N/A   Clear
5:53 AM 73.0 °F - 64.0 °F 73% 29.96 in 10.0 mi SSW 5.8 mph - N/A   Clear
6:53 AM 75.0 °F - 64.9 °F 71% 29.98 in 10.0 mi SSW 8.1 mph - N/A   Clear
7:53 AM 79.0 °F - 66.0 °F 64% 29.99 in 10.0 mi SW 11.5 mph - N/A   Clear
8:53 AM 82.9 °F 85.0 °F 66.0 °F 56% 29.99 in 10.0 mi SW 10.4 mph - N/A   Clear
9:53 AM 88.0 °F 89.6 °F 64.9 °F 46% 29.99 in 10.0 mi WSW 13.8 mph - N/A   Clear
10:53 AM 90.0 °F 91.3 °F 64.0 °F 42% 29.98 in 10.0 mi WSW 16.1 mph 20.7 mph N/A   Clear
11:53 AM 91.9 °F 92.5 °F 62.1 °F 37% 29.97 in 10.0 mi WSW 12.7 mph - N/A   Partly Cloudy
12:53 PM 93.9 °F 94.8 °F 62.1 °F 35% 29.94 in 10.0 mi Variable 5.8 mph - N/A   Partly Cloudy
1:53 PM 95.0 °F 95.2 °F 61.0 °F 32% 29.93 in 10.0 mi SW 11.5 mph 21.9 mph N/A   Partly Cloudy
2:53 PM 96.1 °F 96.9 °F 62.1 °F 32% 29.90 in 10.0 mi WSW 13.8 mph 20.7 mph N/A   Mostly Cloudy
3:53 PM 97.0 °F 97.4 °F 61.0 °F 30% 29.88 in 10.0 mi SW 11.5 mph 20.7 mph N/A   Partly Cloudy
4:53 PM 97.0 °F 96.9 °F 60.1 °F 29% 29.86 in 10.0 mi SW 6.9 mph 17.3 mph N/A   Partly Cloudy
5:53 PM 98.1 °F 98.6 °F 61.0 °F 29% 29.85 in 10.0 mi SW 9.2 mph - N/A   Clear
6:53 PM 96.1 °F 96.4 °F 61.0 °F 31% 29.84 in 10.0 mi SW 9.2 mph - N/A   Clear
7:53 PM 93.0 °F 93.0 °F 61.0 °F 34% 29.84 in 10.0 mi SSW 6.9 mph - N/A   Partly Cloudy
8:53 PM 87.1 °F 87.8 °F 63.0 °F 44% 29.86 in 10.0 mi South 5.8 mph - N/A   Partly Cloudy
9:53 PM 84.0 °F 85.4 °F 64.0 °F 51% 29.87 in 10.0 mi South 4.6 mph - N/A   Mostly Cloudy
10:53 PM 86.0 °F 87.3 °F 64.0 °F 48% 29.89 in 10.0 mi West 8.1 mph - N/A   Overcast
11:53 PM 81.0 °F 83.3 °F 66.9 °F 62% 29.89 in 10.0 mi WNW 11.5 mph - N/A   Mostly Cloudy